Location: Unspecified
(0.0000°N, 0.0000°E)
Time: 03:24:48
(UTC+02:00)

Ariane H10 - Visible Passes

Search period start: 02 April 2015 00:00
Search period end: 12 April 2015 00:00
Orbit: 394 x 35160 km, 4.1° (Epoch: 01 April)

Date Brightness Start Highest point End Pass type
(mag) Time Alt. Az. Time Alt. Az. Time Alt. Az.
03 Apr 5.5 06:27:41 36° W 06:32:38 84° S 16:07:40 10° E visible
04 Apr 6.3 23:25:33 10° W 23:35:42 30° WNW 23:35:42 30° WNW visible
06 Apr 6.3 07:06:47 17° W 07:16:44 83° S 16:51:55 10° E visible
07 Apr 7.0 03:52:12 19° E 03:52:12 19° E 03:57:01 10° E visible
08 Apr 7.2 00:13:53 10° W 00:14:43 12° W 00:14:43 12° W visible
08 Apr 6.1 11:16:48 10° W 20:52:00 79° N 21:00:06 16° E visible
10 Apr 6.1 04:31:03 41° E 04:31:03 41° E 13:49:01 10° E visible
10 Apr 6.1 04:31:02 41° E 04:31:02 41° E 04:49:55 10° E visible
11 Apr 5.3 12:01:46 10° W 21:34:52 75° N 21:38:51 36° ENE visible
